map of DNK home
Great Circle Mapper logo
DNK - Airport
Location
City:  Dnepropetrovsk, Ukraine
ICAO / IATA:UKDD / DNK

Details
Type:Airport (Aerodrome, Airfield)
Use:International (customs port of entry)
Latitude:4821'26"N (48.357222)
Longitude:3506'02"E (35.100556)
Datum:WGS 1984
Elevation:481 ft (147 m)
Runways:1
Longest:9320 × 144 ft (2841 × 44 m), paved

Time
Time Zone:UTC+2 (DST+3)
Local Time:

Weather
METAR:UKDD 201400Z 00000MPS CAVOK 31/09 Q1016 08090070 NOSIG
TAF:UKDD 201106Z 2012/2112 VRB02MPS 9999 SCT030
TEMPO 2012/2018 25006MPS
BECMG 2106/2108 20006MPS TX31/2012Z TN15/2102Z

Related Locations
Nearby:
Farthest:CHT: 10902 mi / 17545 km
Waitangi [Tuuta], Chatham Islands, NZ

Find:

   beyond  
but within

Other Information
Maps:
NOTAMs:
Links:
Sources:

  
flag of Ukraine   

Sectional Chart

Flight Planning
at skyvector.com

Satellite Image

Google Maps Satellite View

 

Copyright © 2004-2014 Karl L. Swartz. All rights reserved.
The Great Circle Mapper name and logo are trademarks of the Great Circle Mapper.
All other trademarks mentioned herein belong to their respective owners.
Please see credits for attibutions and further copyright information.

  Follow gcmap on Facebook Follow gcmap on Twitter

hCard Microformat

Geo Microformat